Flag for Norway Weather past 2 weeks in Kongsvinger, Norway

Now
28 °F

Ice fog.


Feels Like: 21 °F
Forecast: 35 / 36 °F
Wind: 7 mph from South

Location: Oslo Gardermoen Airport

Current Time: Feb 28, 2015 at 7:18:05 AM

Latest Report: Feb 28, 2015 at 6:50 AM


Visibility: 4 mi

Pressure: 29.77 "Hg

Humidity: 93%

Dew point: 27 °F

Location of KongsvingerLocation

Historic Weather in Kongsvinger — Graph

°F

Kongsvinger temperature yesterday

Maximum temperature yesterday: 37 °F (at 4:20 PM)
Minimum temperature yesterday: 28 °F (at 11:20 PM)
Average temperature yesterday: 33 °F

Past Weeks' High & Low Weather Summary

 TemperatureHumidityPressure
High43 °F (Feb 18, 8:20 PM)100% (Feb 13, 5:20 AM)30.51 "Hg (Feb 13, 5:20 AM)
Low16 °F (Feb 22, 5:20 AM)38% (Feb 22, 4:20 PM)28.97 "Hg (Feb 23, 1:20 PM)
Average32 °F88%29.73 "Hg
* Reported Feb 13 5:20 AM — Feb 28 5:50 AM, Kongsvinger, Weather by CustomWeather, © 2015

Note: Actual official high and low records may vary slightly from our data, if they occured in-between our weather recording intervals... More about our weather records

Advertising

Kongsvinger weather history for previous 24 hours

 ConditionsComfort  
Time TempWeatherWind HumidityBarometerVisibility
5:50 AM
Sat, Feb 28
27 °FChilly.3 mph100%29.77 "Hg1 mi
5:20 AM27 °FIce fog.3 mph100%29.77 "Hg1 mi
4:50 AM27 °FIce fog.3 mph100%29.77 "Hg1 mi
3:20 AM27 °FChilly.2 mph100%29.80 "Hg4 mi
2:50 AM28 °FIce fog.1 mph93%29.80 "Hg1 mi
2:20 AM28 °FIce fog.3 mph100%29.80 "Hg1 mi
1:50 AM28 °FIce fog.3 mph100%29.83 "Hg0 mi
1:20 AM28 °FChilly.2 mph100%29.83 "Hg1 mi
12:50 AM28 °FChilly.1 mph100%29.80 "Hg4 mi
12:20 AM28 °FChilly.No wind100%29.83 "Hg4 mi
11:50 PM
Fri, Feb 27
30 °FChilly.5 mph93%29.80 "Hg5 mi
11:20 PM28 °FChilly.5 mph100%29.83 "Hg5 mi
10:50 PM30 °FIce fog.7 mph100%29.83 "Hg1 mi
10:20 PM30 °FIce fog.5 mph100%29.83 "Hg1 mi
9:50 PM30 °FPassing clouds.2 mph100%29.83 "Hg5 mi
9:20 PM30 °FPassing clouds.6 mph100%29.83 "Hg6 mi
8:50 PM32 °FPassing clouds.3 mph93%29.83 "HgN/A
8:20 PM32 °FPassing clouds.10 mph100%29.83 "HgN/A
7:50 PM32 °FPassing clouds.6 mph93%29.83 "HgN/A
7:20 PM32 °FPartly cloudy.2 mph93%29.80 "HgN/A
6:50 PM32 °FPassing clouds.8 mph93%29.80 "HgN/A
6:20 PM32 °FPassing clouds.10 mph93%29.80 "HgN/A
5:50 PM34 °FPassing clouds.10 mph87%29.80 "HgN/A
5:20 PM36 °FScattered clouds.14 mph81%29.80 "HgN/A
4:50 PM36 °FScattered clouds.12 mph81%29.77 "HgN/A
4:20 PM37 °FScattered clouds.9 mph81%29.77 "HgN/A
3:50 PM36 °FScattered clouds.9 mph87%29.77 "HgN/A
3:20 PM36 °FBroken clouds.10 mph87%29.77 "HgN/A
2:50 PM36 °FPartly sunny.7 mph87%29.77 "HgN/A
2:20 PM36 °FPartly sunny.9 mph87%29.74 "HgN/A
1:50 PM36 °FPartly sunny.6 mph87%29.74 "Hg4 mi
1:20 PM36 °FMore clouds than sun.5 mph87%29.74 "Hg4 mi
12:50 PM36 °FFog.5 mph87%29.74 "Hg3 mi
12:20 PM36 °FFog.2 mph87%29.71 "Hg2 mi
11:50 AM36 °FLight rain. Fog.2 mph87%29.71 "Hg1 mi
11:20 AM34 °FLight rain. Fog.No wind93%29.71 "Hg1 mi
10:50 AM34 °FLight rain. Fog.2 mph93%29.71 "Hg1 mi
10:20 AM34 °FLight rain. Fog.3 mph93%29.71 "Hg1 mi
9:50 AM34 °FLight rain. Fog.3 mph93%29.71 "Hg1 mi
9:20 AM32 °FLight rain. Ice fog.3 mph100%29.71 "Hg1 mi
8:50 AM32 °FLight rain. Ice fog.6 mph100%29.71 "Hg1 mi
8:20 AM32 °FLight rain. Ice fog.6 mph100%29.68 "Hg1 mi
7:50 AM32 °FLight rain. Ice fog.6 mph100%29.68 "Hg1 mi
7:20 AM32 °FLight snow. Ice fog.6 mph100%29.68 "Hg2 mi
Weather by CustomWeather, © 2015

See weather overviewHow to use our weather pages